Погода Ханты-Мансийск

Погода Ханты-Мансийск : погода сейчас, прогноз погоды и архив. Всё, что Вы хотите узнать о погоде Ханты-Мансийск!

Хотите узнать прогноз погоды Ханты-Мансийск? Тогда Вам сюда: Погода Ханты-Мансийск

Поиск расширенной информации на нашем сайте:

Другие новости

Новости СМИ2

Главная страница сайта

Новости сайта

03.07.2017

Напоминаем, что на нашем специализированном сайте Метеоцентр.Азия вы можете получить высокодетализированные автоматические прогнозы погоды по пунктам России, СНГ и мира в авиационном формате (включающие направление и скорость ветра, видимость, явления погоды, количество и форму облачности, нижнюю и верхнюю границу облачности).


Погода Ханты-Мансийск - сегодня

Время (UTC), дата Ветер
(°,м/с) 
Видим.   Явления Облачность Т
(°С)
Тd
(°С)
f(%) Тe
(°С)
Pmin
(гПа)
dP
(гПа)
Po
(мм)
O2
(г/м3)
Тmin Tmax R s Состояние
почвы
15 20.02.18 150 (ЮВ) 4000 м  слаб. снег  10/0 средняя 
[Ac As]
-10 -11.3 90 -12  1021.5  -0.4  762  320    -8.2     
18 20.02.18 090 (В) 4000 м  слаб. снег  10/0 средняя 
[Ac As]
-10.5 -11.8 90 -10  1020.6  -0.9  761  320           
21 20.02.18 090 (В) 4000 м  слаб. снег  10/0 средняя 
[Ac As]
-9.9 -11.1 91 -12  1019.6  -1  760  319           
00 21.02.18 100 (В) 4000 м  слаб. снег  10/0 средняя 
[Ac As]
-9.8 -11.1 90 -13  1017.9  -1.6  759  318           
03 21.02.18 110 (В) 4000 м  слаб. снег  10/0 средняя 
[Ac As]
-9.3 -10.6 90 -12  1016.2  -1.7  758  317  -10.6       
06 21.02.18 110 (В) 4000 м  слаб. снег  10/0 средняя 
[Ac As]
-8 -9.4 90 -11  1014.9  -1.3  757  315           
09 21.02.18 120 (ЮВ) 4000 м  слаб. снег  10/0 средняя 
[Ac As]
-7.3 -9.2 86 -10  1013.6  -1.3  756  314           
12 21.02.18 090 (В) 10 км  {снег}  10/0 средняя 
[As op]
-6.9 -10 79 -10  1012.2  -1.3  755  313           
15 21.02.18 090 (В) 4000 м  слаб. снег  10/0 средняя 
[As op]
-7.7 -9.8 85 -11  1010.5  -1.7  754  313    -6.7     
18 21.02.18 090 (В) 10 км  {снег}  10/0 средняя 
[Ac As]
-8.1 -10.9 80 -11  1009.1  -1.4  753  314           
21 21.02.18 070 (В) 10 км    10/0 средняя 
[Ac As]
-8.7 -11.2 82 -12  1007.9  -1.3  752  314           
00 22.02.18 080 (В) 4000 м  слаб. снег  10/0 средняя 
[Ac As]
-8.5 -9.9 90 -10  1006.8  -1.1  751  313           
03 22.02.18 090 (В) 4000 м  слаб. снег  10/0 средняя 
[Ac As]
-8.6 -10 90 -10  1006.2  -0.6  750  313  -8.7    36  равномерный
сухой снег
100% 
06 22.02.18 130 (ЮВ) 4000 м  слаб. снег  10/0 средняя 
[Ac As]
-8 -9.6 88 -10  1006.6  0.5  751  313           
09 22.02.18 190 (Ю) 4000 м  слаб. снег  8/0 средняя, верхняя 
[Ac As|Cs]
-11.4 -14 81 -15  1008.8  2.1  752  318           
12 22.02.18 180 (Ю) 4000 м  слаб. снег  10/0 средняя, верхняя 
[Ac und|Cs]
-15.7 -18.9 76 -18  1011.4  2.5  754  324           
15 22.02.18 180 (Ю) 4000 м  слаб. снег  10/0 средняя, верхняя 
[Ac und|Cs]
-18.2 -20.9 79 -18  1013.1  1.6  755  328    -8     
18 22.02.18 170 (Ю) 4000 м  слаб. снег  8/0 средняя 
[Ac trans]
-20.9 -23.3 81 -21  1014  0.9  756  332           
21 22.02.18 тихо ()   10 км  в посл. час снег [диам. изморози 0.1 мм]  ясно 
-25 -27.5 80 -25  1014.8  0.6  756  337           
03 23.02.18 тихо ()   4000 м  слаб. снег [диам. изморози 0.1 мм]  8/0 средняя, верхняя 
[Ac trans|Ci fib]
-26.1 -29.1 76 -26  1016  0.5  757  339  -26.7    0.3  38  равномерный
сухой снег
100% 
12 23.02.18 270 (З) 10 км  {снег}  10/0 верхняя 
[Cs]
-20.5 -23.6 76 -21  1017.5  0.6  759  332           
15 23.02.18 280 (З) 10 км  ледяные иглы{снег}  10/0 верхняя 
[Cs]
-20.3 -22.8 80 -23  1017.5  759  332    -17.8  0.3     
18 23.02.18 340 (С) 4000 м  снежные кристаллы  10/0 средняя 
[Ac und]
-23 -25.2 82 -23  1017.3  -0.2  758  335           
03 24.02.18 360 (С) 10 км  слаб. снег [диам. изморози 0.4 мм]  10/0 верхняя 
[Cs]
-28 -31.2 74 -29  1018  759  343  -28    0.2  38  равномерный
сухой снег
100% 
09 24.02.18 150 (ЮВ) 10 км  [диам. изморози 0.1 мм]  10/0 верхняя 
[Ci]
-23.8 -28.7 64 -24  1019  0.5  760  337           
Время (UTC), дата Ветер
(°,м/с) 
Видим.   Явления Облачность Т
(°С)
Тd
(°С)
f(%) Тe
(°С)
Pmin
(гПа)
dP
(гПа)
Po
(мм)
O2
(г/м3)
Тmin Tmax R s Состояние
почвы

Для получения пояснительной информации подведите курсор к названию столбца.

ПОГОДА Ханты-Мансийск - архив

Всё, что Вы хотите узнать о погоде Ханты-Мансийск - удобно и подробно!

Выберите нужную дату (начиная с 1 января 2015* года) и нажмите кнопку "Найти".
Будут отображены архивные сводки погоды по пункту Ханты-Мансийск, начиная с указанной даты.


Отображать данные в формате CSV (для использования в таблицах Excel)


Внимание! Наш архив погоды предназначен исключительно для личного некоммерческого использования в познавательных целях. Если Вам необходимы официальные справки о состоянии погоды (для производственных, юридических, коммерческих и т.п. целей), обращайтесь в органы Росгидромета.

*Примечание: данная дата относится к архиву по метеостанциям СССР (Россия, СНГ, Балтия).
Архив по метеостанциям Зарубежной Европы и Азии (кроме Китая) хранится 10 дней, по другим регионам земного шара (Китай, Африка, Америка, Австралия, Океания) - 1 день.

Ханты-Мансийск - район местоположения метеостанции


Название, широта, долгота, высота метеостанции:
Ханты-Мансийск 61°ш. 69°д. 46 м над ур. моря [Российская Федерация]

Дополнительная информация

В oтличие oт бoльшинства пoгoдных сайтoв мы публикуем пoдрoбную метеoинфoрмацию в детальнoм прoфессиoнальнoм фoрмате.

Характеристики температуры и влажнoсти вoздуха измеряются на высoте 2 м в тени вдали oт зданий и деревьев.
Скoрoсть ветра измеряется на высoте 10 м (на урoвне рoста челoвека скoрoсть ветра ниже в 1.5-2 раза). Если метеoстанция нахoдится в гoрoде или в лесу, тo скoрoсть ветра занижена на 2-4 м/с пo сравнению с oткрытым местoм. Скoрoсть ветра над акватoриями крупных рек и oзёр, а также на вершинах хoлмoв на 2-5 м/с выше, чем в oбычных услoвиях.
Атмoсфернoе давление в разных тoчках местнoсти мoжет значительнo oтличаться oт давления на метеoстанции, в зависимoсти oт услoвий рельефа (при пoдъёме на 10 м давление пoнижается примернo на 1 мм рт.ст.).